Wind_Speed
8 9 10 11 11 12 12 13 13 14 14 14 14 14 14 14 15 15 15 15 15 15 15 14 14 13 13 13 13 13 13 12 11 11 11 10 9 8 7 6 6 6 6
5 6 8 9 9 10 11 11 12 12 13 13 13 14 13 13 13 14 14 14 14 14 14 14 14 13 13 12 12 12 12 11 11 10 10 10 9 8 7 6 5 5 4
4 5 6 7 8 8 9 9 10 11 11 12 12 12 13 13 13 12 12 12 13 13 13 13 13 13 13 12 11 11 11 11 11 10 10 10 9 8 8 7 5 5 4
3 4 5 5 6 7 7 8 8 9 9 10 11 11 12 12 12 11 11 11 11 12 12 13 13 13 13 13 11 11 10 10 10 10 9 9 8 8 7 6 5 4 3
4 4 5 5 5 5 6 6 7 7 8 9 9 10 11 11 11 11 10 10 10 10 11 12 12 13 14 14 13 11 10 9 9 10 10 9 8 8 7 6 5 4 3
6 6 6 6 6 6 6 7 7 7 7 8 9 9 10 11 11 11 10 10 10 10 10 11 11 12 13 14 14 12 11 9 8 8 9 9 8 8 7 6 4 4 3
8 8 8 8 8 9 9 9 9 9 9 9 9 10 10 11 11 11 11 11 10 10 10 11 11 12 12 13 13 13 12 10 9 8 8 9 8 8 7 6 5 4 4
9 9 9 10 10 11 11 11 11 11 11 10 11 11 11 11 12 12 11 11 11 11 11 11 12 12 12 12 13 13 12 11 11 9 9 9 8 8 8 7 6 5 5
9 10 10 11 11 12 13 13 13 13 13 12 12 12 12 13 13 13 12 12 12 12 12 12 13 13 13 13 13 13 13 12 12 11 10 10 10 9 8 8 8 7 7
9 10 11 11 12 12 13 14 14 14 14 13 13 13 13 13 14 13 13 13 13 13 13 14 14 15 15 15 15 15 14 14 13 13 12 12 11 10 10 9 10 9 9
10 10 10 11 12 12 13 13 14 14 14 14 14 14 14 14 14 14 14 14 14 15 15 15 16 17 17 17 17 17 17 16 15 15 15 14 13 12 11 11 11 11 11
10 11 10 10 11 12 13 14 14 14 15 15 15 16 16 16 16 16 16 16 16 16 17 17 18 19 19 19 20 19 19 19 18 18 18 17 16 15 14 13 13 13 12
13 13 14 14 14 14 15 16 16 16 17 17 18 18 18 18 18 18 18 18 19 19 19 20 20 20 21 21 22 22 22 22 22 21 21 21 19 18 17 17 16 15 14
16 17 18 19 19 19 19 20 20 20 20 20 20 21 21 21 21 21 21 22 22 22 22 23 23 23 23 24 24 25 25 25 25 24 24 23 23 22 21 20 19 18 17
22 21 22 23 24 24 24 24 25 25 24 24 24 24 25 25 24 24 24 25 25 26 26 26 26 27 26 27 28 28 28 28 28 28 28 27 27 26 25 23 22 21 20
27 26 26 27 29 29 29 29 29 28 28 28 28 28 28 29 29 29 28 28 29 29 29 29 29 29 28 29 30 30 31 31 31 30 31 31 30 29 28 27 26 25 23
31 32 32 33 33 34 34 34 34 33 32 31 31 31 31 31 32 32 32 31 31 31 31 31 31 31 31 31 32 32 32 32 33 33 33 33 32 32 32 31 29 28 27
34 35 36 37 36 37 38 39 39 38 36 35 34 34 33 33 33 34 34 34 33 33 32 32 33 33 33 33 33 34 33 33 33 34 35 35 35 33 33 33 33 31 30
35 35 37 37 37 38 39 39 38 39 38 37 37 36 36 36 35 36 36 35 36 35 35 35 35 35 34 35 35 35 34 33 33 34 34 34 35 34 33 33 33 33 32
35 35 36 37 37 38 38 39 37 36 37 38 38 39 38 38 38 38 37 37 37 37 37 37 36 37 36 36 36 36 36 35 34 34 33 33 34 33 33 32 32 32 32
34 35 36 37 38 39 39 40 38 36 36 38 39 39 39 40 39 39 39 39 39 38 38 37 38 39 38 38 37 36 36 35 34 33 33 33 32 31 32 32 32 32 31
35 36 37 39 39 39 39 41 41 39 38 38 40 41 41 41 41 41 40 40 41 41 40 40 41 40 38 38 38 37 36 34 34 34 33 32 31 31 31 31 31 32 32
35 37 37 38 39 40 40 40 40 40 39 39 40 41 41 42 42 42 41 41 42 43 42 41 42 41 40 39 39 39 37 35 34 33 33 32 31 29 29 30 30 30 30
33 34 36 38 38 39 40 40 40 40 39 39 40 40 41 41 41 41 41 41 42 42 42 42 42 42 42 40 40 40 39 37 35 33 33 31 30 28 27 28 30 30 29
32 33 35 36 37 38 39 39 39 39 38 38 38 38 39 39 39 40 40 40 41 42 42 43 43 43 43 42 41 41 39 38 36 35 33 31 29 28 27 26 27 27 27
32 33 35 36 36 37 38 39 39 39 38 38 38 38 38 39 40 40 41 42 42 43 44 44 45 44 44 43 42 42 41 39 37 36 33 31 30 29 27 26 26 25 26
Wind_Direction
69 60 54 49 44 43 44 43 39 33 28 24 21 20 20 21 22 22 24 26 27 27 27 26 26 27 29 32 34 37 40 42 44 46 50 55 60 64 67 70 74 80 82
61 51 47 45 41 38 40 41 38 33 28 23 19 17 16 15 16 18 20 23 25 26 26 25 24 24 24 26 28 31 32 33 34 37 41 44 49 53 55 59 65 70 77
45 31 32 37 37 36 36 35 34 31 27 22 18 14 12 10 11 12 16 18 20 22 23 23 22 22 22 21 22 24 26 24 22 24 29 34 36 40 44 44 47 52 61
20 9 9 18 24 27 28 27 26 25 23 19 15 11 8 6 5 6 8 12 14 16 18 18 17 17 18 17 17 19 21 18 14 12 17 25 25 29 32 30 29 31 40
339 342 344 349 357 4 7 8 9 10 11 10 7 5 3 360 357 358 358 0 3 6 9 10 11 12 13 14 13 13 15 16 9 1 360 9 11 12 16 15 15 16 22
324 324 327 329 332 335 338 340 342 346 349 352 353 353 352 351 349 349 347 347 348 351 356 359 1 2 5 8 10 10 9 9 8 355 345 349 352 350 353 352 352 1 359
322 317 316 317 318 319 319 320 322 325 327 328 332 335 336 337 337 336 336 335 334 337 341 343 347 349 352 356 360 4 5 3 0 353 337 334 337 331 331 330 331 334 344
313 310 307 308 311 312 312 310 309 312 314 314 317 321 322 324 325 325 326 326 325 326 329 331 333 336 339 342 346 350 353 354 354 349 340 330 326 319 314 311 310 311 310
303 302 301 301 304 307 308 308 305 303 305 305 307 309 312 314 318 318 317 319 319 319 321 323 324 325 326 328 331 333 336 338 339 341 337 330 325 315 309 305 302 299 293
296 294 293 295 298 301 303 303 303 301 300 300 301 302 305 308 311 312 312 312 313 313 313 314 316 317 317 317 318 319 321 321 322 322 325 327 326 319 310 305 299 295 291
299 295 294 295 296 297 298 299 299 299 299 298 298 298 299 302 305 306 307 308 309 309 308 309 310 312 312 312 311 311 311 309 310 310 311 313 315 316 315 307 299 293 289
306 304 302 299 296 295 295 296 296 295 295 295 295 296 297 297 298 298 300 302 304 305 306 306 307 307 308 308 307 306 305 302 301 302 302 302 302 306 309 305 299 292 286
302 302 301 298 295 293 292 292 291 291 291 291 291 292 292 293 293 293 294 294 296 298 299 300 301 301 302 302 302 301 300 297 296 295 295 295 296 298 296 295 293 289 286
295 296 296 296 294 292 290 290 289 288 288 288 288 288 288 287 288 289 291 291 293 294 294 295 295 295 294 295 295 296 294 293 291 289 290 290 288 287 285 285 284 284 284
291 290 290 290 290 289 288 288 288 288 287 287 286 286 286 286 285 285 285 287 287 288 288 290 291 292 293 293 292 290 288 288 288 285 284 284 282 281 278 279 279 279 280
290 288 287 285 284 284 284 283 283 283 284 284 284 284 284 284 284 284 283 282 282 283 283 284 287 288 290 291 291 291 288 286 285 282 282 281 277 276 275 274 274 274 276
290 287 286 285 284 281 280 279 278 277 277 278 279 279 279 280 281 282 281 281 281 281 281 282 283 284 286 288 290 290 290 287 283 282 282 281 279 275 272 269 269 270 272
289 286 285 285 282 280 279 279 277 276 276 276 276 276 276 277 277 278 280 281 281 282 282 282 283 284 286 288 290 290 290 289 286 283 281 279 277 275 273 269 265 265 267
288 286 285 284 282 279 279 276 275 275 277 277 277 277 276 275 275 275 275 278 280 280 281 282 283 284 286 288 289 289 289 288 288 285 281 278 277 275 273 269 264 261 263
291 288 287 284 283 280 280 277 276 277 277 277 277 277 276 276 275 276 275 275 277 278 279 281 282 284 285 286 287 288 288 287 288 285 281 278 276 273 272 269 265 263 262
295 293 290 287 285 281 280 279 280 280 278 276 276 277 278 279 277 278 278 277 278 279 278 280 283 284 285 285 286 287 287 288 287 284 281 277 275 274 272 270 265 261 260
295 295 292 291 290 288 285 283 283 282 280 278 277 276 276 277 277 279 279 278 279 280 281 281 282 284 284 283 284 285 286 286 286 285 281 277 275 274 271 266 262 258 258
295 294 292 292 291 290 287 285 284 282 280 277 276 276 276 276 278 278 279 279 279 280 281 282 282 283 283 283 282 282 284 284 283 281 280 278 274 271 269 263 257 255 254
297 295 294 293 292 291 289 288 286 285 283 280 278 277 277 278 279 279 280 281 280 280 281 281 281 281 282 281 280 280 282 281 282 279 277 275 272 268 267 261 251 250 250
300 297 296 294 293 291 290 289 288 287 286 284 282 280 279 279 280 281 281 281 280 280 280 280 280 279 281 280 278 280 280 281 280 277 273 273 269 264 262 258 251 250 250
303 301 300 298 295 293 291 290 289 288 287 286 285 283 281 281 281 281 282 282 281 281 280 280 279 279 279 278 277 277 277 278 277 275 271 269 266 261 257 255 251 252 252
Height
5935 5934 5934 5933 5933 5933 5932 5931 5931 5930 5930 5929 5928 5927 5926 5924 5923 5921 5919 5918 5916 5915 5913 5911 5910 5908 5907 5906 5904 5903 5902 5900 5899 5898 5897 5895 5894 5894 5893 5892 5892 5892 5891
5936 5936 5935 5935 5935 5934 5934 5933 5932 5932 5931 5930 5929 5928 5927 5925 5924 5922 5921 5919 5917 5916 5914 5913 5911 5910 5908 5907 5905 5904 5903 5902 5900 5899 5898 5896 5895 5894 5894 5893 5893 5892 5892
5937 5937 5937 5937 5936 5936 5935 5934 5934 5933 5932 5931 5930 5929 5928 5926 5925 5923 5922 5920 5918 5917 5915 5913 5912 5910 5909 5907 5906 5905 5904 5902 5901 5899 5898 5897 5896 5895 5894 5894 5893 5892 5892
5938 5938 5938 5938 5937 5937 5936 5936 5935 5934 5932 5931 5930 5929 5928 5927 5925 5924 5922 5921 5919 5918 5916 5914 5912 5911 5909 5908 5906 5905 5904 5903 5901 5900 5899 5898 5897 5896 5895 5894 5893 5893 5892
5940 5939 5939 5939 5938 5938 5937 5936 5935 5934 5933 5932 5931 5929 5928 5927 5926 5924 5923 5922 5920 5918 5917 5915 5913 5911 5910 5908 5907 5905 5904 5903 5902 5900 5899 5898 5897 5896 5895 5894 5894 5893 5892
5940 5940 5940 5939 5939 5938 5937 5937 5936 5934 5933 5932 5931 5930 5928 5927 5926 5924 5923 5922 5920 5919 5917 5915 5914 5912 5910 5909 5907 5906 5905 5904 5902 5901 5899 5898 5897 5896 5895 5895 5894 5892 5891
5940 5940 5939 5939 5938 5938 5937 5936 5935 5934 5933 5932 5931 5929 5928 5927 5925 5924 5923 5921 5920 5919 5917 5916 5914 5913 5911 5909 5908 5906 5905 5904 5903 5901 5900 5898 5897 5896 5895 5894 5893 5892 5891
5939 5939 5939 5938 5938 5937 5936 5935 5934 5933 5932 5931 5930 5928 5927 5926 5924 5923 5922 5920 5919 5918 5917 5915 5914 5912 5911 5909 5908 5906 5905 5904 5902 5901 5900 5898 5897 5896 5895 5894 5893 5891 5890
5938 5937 5937 5937 5936 5935 5935 5934 5933 5932 5930 5929 5928 5927 5926 5924 5923 5922 5920 5919 5918 5917 5915 5914 5913 5911 5910 5909 5907 5906 5905 5903 5902 5900 5899 5898 5896 5895 5894 5892 5891 5890 5889
5936 5936 5935 5935 5934 5933 5932 5931 5930 5929 5928 5927 5926 5925 5923 5922 5921 5920 5918 5917 5916 5915 5913 5912 5911 5910 5908 5907 5906 5905 5903 5902 5901 5899 5898 5897 5895 5894 5892 5891 5890 5889 5888
5935 5934 5933 5933 5932 5931 5930 5929 5928 5927 5926 5925 5923 5922 5921 5919 5918 5917 5916 5914 5913 5912 5911 5910 5908 5907 5906 5905 5904 5902 5901 5900 5899 5897 5896 5895 5894 5892 5891 5889 5888 5887 5886
5933 5932 5931 5930 5929 5928 5927 5926 5925 5924 5923 5922 5920 5919 5918 5916 5915 5914 5912 5911 5910 5909 5908 5907 5905 5904 5903 5902 5900 5899 5898 5897 5896 5894 5893 5892 5891 5890 5889 5888 5887 5885 5884
5931 5930 5928 5928 5927 5925 5924 5923 5922 5920 5919 5918 5917 5915 5914 5913 5911 5910 5908 5907 5906 5905 5904 5903 5901 5900 5899 5897 5896 5895 5894 5893 5892 5891 5890 5889 5887 5886 5886 5885 5885 5883 5882
5929 5927 5925 5924 5923 5922 5920 5919 5917 5916 5915 5914 5912 5911 5910 5908 5907 5906 5904 5902 5901 5900 5899 5898 5896 5895 5894 5892 5891 5890 5888 5887 5886 5886 5885 5884 5883 5882 5882 5881 5881 5880 5879
5925 5924 5923 5920 5919 5917 5916 5914 5912 5911 5909 5908 5907 5905 5904 5903 5902 5901 5899 5898 5896 5895 5894 5892 5890 5889 5888 5886 5885 5884 5882 5881 5880 5880 5879 5878 5877 5876 5876 5876 5876 5875 5874
5919 5919 5917 5915 5913 5911 5909 5908 5906 5905 5903 5901 5900 5899 5897 5896 5894 5894 5893 5891 5890 5889 5887 5886 5884 5883 5881 5880 5878 5877 5876 5874 5873 5872 5872 5871 5870 5870 5869 5869 5869 5869 5869
5911 5910 5909 5907 5905 5903 5901 5899 5898 5897 5896 5895 5893 5892 5890 5889 5887 5885 5884 5883 5882 5881 5880 5879 5877 5876 5874 5873 5871 5869 5868 5866 5865 5864 5863 5862 5862 5862 5862 5862 5862 5862 5862
5903 5901 5899 5898 5896 5893 5891 5888 5886 5886 5886 5885 5884 5883 5882 5881 5879 5877 5875 5874 5873 5872 5871 5869 5868 5867 5866 5864 5863 5861 5859 5858 5856 5855 5854 5853 5853 5853 5853 5853 5854 5855 5855
5894 5892 5890 5888 5886 5883 5880 5876 5872 5874 5874 5873 5873 5873 5872 5870 5869 5867 5866 5864 5863 5862 5861 5860 5859 5858 5857 5855 5854 5852 5850 5849 5847 5846 5845 5844 5843 5843 5844 5844 5845 5846 5847
5885 5883 5880 5878 5877 5873 5869 5866 5862 5864 5864 5863 5862 5861 5860 5859 5858 5856 5855 5854 5853 5851 5851 5850 5849 5848 5847 5846 5844 5844 5842 5840 5838 5837 5836 5835 5835 5835 5835 5835 5836 5838 5839
5877 5874 5871 5869 5867 5863 5861 5859 5856 5856 5855 5854 5852 5850 5849 5848 5847 5846 5845 5844 5842 5841 5840 5840 5839 5838 5837 5836 5835 5835 5834 5832 5830 5829 5827 5827 5826 5826 5826 5827 5828 5829 5831
5869 5866 5863 5860 5857 5854 5852 5850 5848 5848 5846 5845 5843 5841 5839 5838 5837 5836 5835 5833 5832 5831 5830 5829 5829 5828 5827 5826 5825 5824 5824 5824 5822 5820 5819 5818 5818 5818 5818 5818 5819 5821 5822
5863 5859 5855 5851 5848 5845 5843 5840 5839 5837 5836 5835 5833 5832 5830 5828 5827 5826 5824 5823 5822 5821 5821 5820 5819 5818 5817 5817 5815 5815 5814 5815 5814 5813 5811 5810 5809 5809 5810 5810 5811 5812 5814
5856 5852 5848 5844 5840 5837 5833 5831 5829 5827 5825 5824 5823 5822 5820 5818 5817 5815 5814 5813 5812 5811 5810 5809 5809 5808 5806 5806 5806 5805 5804 5804 5804 5804 5803 5802 5802 5802 5802 5802 5803 5805 5806
5849 5844 5840 5836 5832 5828 5825 5822 5819 5817 5815 5814 5812 5811 5810 5808 5807 5805 5804 5802 5801 5801 5800 5799 5797 5797 5796 5796 5796 5795 5794 5794 5794 5794 5794 5794 5793 5794 5795 5795 5796 5797 5798
5840 5836 5832 5828 5824 5820 5816 5813 5810 5808 5806 5804 5802 5801 5799 5798 5797 5795 5793 5792 5791 5790 5789 5787 5786 5786 5785 5785 5785 5785 5784 5785 5785 5784 5785 5785 5785 5786 5787 5788 5789 5790 5791